THOR ABLESTAR R/B, 893

Orbit data source: Space-Track

THOR ABLESTAR R/B, 893 is space debris in LEO originally from a launch on Tue, 06 Oct 1964 UTC launched from the Air Force Western Test Range (AFWTR). Debris objects in space refer to the collection of defunct objects orbiting the Earth. Examples of debris include non-operational satellites, rocket bodies, and fragments generated from explosions, collisions, or faulty payload assembly.

Loading next visibility...
Identifier
893, 1964-063A
Orbit
LEO
Last TLE update
22 hours ago
Origin
Manufacturer
Aerojet
Mission
Spacecraft
Bus & Motor
ABLESTAR, Unknown motor
Mass
~600 kg wet, 600 kg dry
Launch date (UTC)
1964-10-06 (61 years ago)
Launch vehicle
Unknown
Launch site
Air Force Western Test Range (AFWTR)
Object type
Payload
Rocket body
Debris
Shape & HBR
Cyl, 4.8 m
Radar Cross Section
6.048 m², Large (>1 m²)

Expand to show TLE details & history

TLE from 22 hours ago
0 THOR ABLESTAR R/B
1 00893U 64063A   25181.83434291  .00000054  00000-0  64185-4 0  9997
2 00893  90.2263  67.0643 0025971 165.1320 239.4107 13.56289903  4356
Epoch: 2025-06-30T20:01Z
TLE epoch observation values (Epoch: 2025-06-30T20:01:27.227Z)
Latitude
44.37433°
Longitude
-152.65788°
Altitude
1,065.788 km
Speed
7.318 km/s
True Right ascension
04h 27m 22s
True Declination
44° 12' 34"
Sunlit
Object was in daylight at epoch
Visualization orbit readout
Latitude
46.46015°
Longitude
27.82014°
Altitude
1,039.503 km
Speed
7.345 km/s
Apparent Right ascension
16h 55m 11s
Apparent Declination
7° 20' 59"
Sunlit
Object is in daylight
Visualization observer readout
Local Sidereal Time
05:22:15
Azimuth
9.093° NNE
Elevation
-42.322°
Doppler factor
1
Orbital elements
Apogee altitude
1,065.529 km
Perigee altitude
1,026.965 km
Semi-major axis
7,424.384 km
Eccentricity
0.0026
Inclination
90.2263°
RAAN
67.0643°
Arg. of periapsis
165.132°
True anomaly
Unknown
Mean anomaly
239.4107°
Eccentric anomaly
Unknown
Mean motion
3.39276 °/min
Orbital period
106.11 mins
BSTAR
0.000064185
Loading maneuver chart data...
Loading SW <> Apogee altitude chart data...
Loading historical data...
Loading historical data...
Loading historical data...
Loading historical data...
Loading historical data...
Loading historical data...
Loading historical data...
Other satellites on launch #63 in the year 1964 (1964-10-06 UTC)

THOR ABLESTAR R/B Visibility forecast

Observer location: undefined°, undefined°

Span
Click to sort rows by Start time (UTC) header in descending order
Start Az.
Max El. time (UTC)
Max El. Az.
Max El.
End time (UTC)
End Az.
11 mins2025-07-02 04:16:36.753Z13.185° NNE2025-07-02 04:21:36.753Z76.051° E39.915°2025-07-02 04:27:36.753Z166.304° S
7 mins2025-07-02 06:04:36.753Z318.752° NNW2025-07-02 06:07:36.753Z283.458° WNW20.238°2025-07-02 06:11:36.753Z242.378° WSW
10 mins2025-07-02 16:11:36.753Z152.728° SSE2025-07-02 16:16:36.753Z67.915° E39.281°2025-07-02 16:21:36.753Z8.722° NNE
|